Monroe, WI

9:54 PM CDT on October 23, 2017 (GMT -0500)
Monroe Municipal

Weather History for KEFT - October, 2012

Change the Weather History Date:

Wednesday, October 10, 2012

  Actual Average Record
Temperature  
Mean Temperature 41 °F -  
Max Temperature 50 °F 0 °F 100 °F (1999)
Min Temperature 32 °F - 32 °F (2000)
Degree Days  
Heating Degree Days 24    
Moisture  
Dew Point 28 °F    
Average Humidity 65    
Maximum Humidity 93    
Minimum Humidity 35    
Precipitation  
Precipitation 0.00 in - - ()
Sea Level Pressure  
Sea Level Pressure 30.06 in    
Wind  
Wind Speed 12 mph (West)    
Max Wind Speed 21 mph    
Max Gust Speed 28 mph    
Visibility 10 miles    
Events      
Averages and records for this station are not official NWS values.
T = Trace of Precipitation, MM = Missing Value Source: NWS Daily Summary

Daily Weather History Graph

Daily Weather History Graph

Search for Another Location

Airport or City:

Trip Planner

Search our weather history database for the weather conditions in past years. The results will help you decide how hot, cold, wet, or windy it might be!

Date:

Astronomy

Oct. 10, 2012 Rise Set
Actual Time 7:06 AM CDT 6:23 PM CDT
Civil Twilight 6:37 AM CDT 6:51 PM CDT
Nautical Twilight 6:05 AM CDT 7:24 PM CDT
Astronomical Twilight 5:32 AM CDT 7:56 PM CDT
Moon 1:36 AM CDT (10/10) 3:31 PM CDT (10/10)
Length of Visible Light 12h 13m
Length of Day
11h 17m
Waning Crescent, 27% of the Moon is Illuminated
Oct 10
Waning Crescent
Oct 15
New
Oct 21
First Quarter
Oct 29
Full
Nov 6
Last Quarter

Hourly Weather History & Observations

Time (CDT) Temp. Windchill Dew Point Humidity Pressure Visibility Wind Dir Wind Speed Gust Speed Precip Events Conditions
12:15 AM 39.2 °F 31.2 °F 37.4 °F 93% 29.91 in 10.0 mi West 13.8 mph - N/A   Clear
12:35 AM 39.2 °F 32.0 °F 37.4 °F 93% 29.91 in 10.0 mi West 11.5 mph 18.4 mph N/A   Clear
12:55 AM 39.2 °F 32.0 °F 33.8 °F 81% 29.91 in 10.0 mi West 11.5 mph - N/A   Clear
1:15 AM 37.4 °F 29.8 °F 32.0 °F 81% 29.92 in 10.0 mi West 11.5 mph - N/A   Clear
1:35 AM 37.4 °F 29.8 °F 32.0 °F 81% 29.93 in 10.0 mi West 11.5 mph - N/A   Clear
1:55 AM 37.4 °F 30.3 °F 32.0 °F 81% 29.93 in 10.0 mi West 10.4 mph - N/A   Clear
2:15 AM 35.6 °F 28.0 °F 32.0 °F 87% 29.94 in 10.0 mi West 10.4 mph - N/A   Clear
2:35 AM 35.6 °F 28.0 °F 33.8 °F 93% 29.94 in 10.0 mi West 10.4 mph - N/A   Clear
2:55 AM 35.6 °F 28.0 °F 33.8 °F 93% 29.94 in 10.0 mi West 10.4 mph - N/A   Clear
3:15 AM 35.6 °F 27.5 °F 32.0 °F 87% 29.94 in 10.0 mi West 11.5 mph - N/A   Clear
3:35 AM 35.6 °F 27.1 °F 32.0 °F 87% 29.94 in 10.0 mi West 12.7 mph - N/A   Clear
3:55 AM 33.8 °F 25.8 °F 32.0 °F 93% 29.95 in 10.0 mi West 10.4 mph - N/A   Clear
4:15 AM 33.8 °F 25.8 °F 32.0 °F 93% 29.95 in 10.0 mi West 10.4 mph - N/A   Clear
4:35 AM 33.8 °F 25.8 °F 32.0 °F 93% 29.95 in 10.0 mi West 10.4 mph - N/A   Clear
4:55 AM 33.8 °F 24.8 °F 32.0 °F 93% 29.96 in 10.0 mi West 12.7 mph - N/A   Clear
5:15 AM 33.8 °F 25.3 °F 30.2 °F 87% 29.98 in 10.0 mi West 11.5 mph - N/A   Clear
5:35 AM 33.8 °F 24.8 °F 30.2 °F 87% 29.99 in 10.0 mi West 12.7 mph - N/A   Clear
5:55 AM 33.8 °F 25.3 °F 28.4 °F 81% 29.99 in 10.0 mi West 11.5 mph - N/A   Clear
6:15 AM 33.8 °F 25.3 °F 28.4 °F 81% 30.00 in 10.0 mi West 11.5 mph - N/A   Clear
6:35 AM 33.8 °F 24.8 °F 28.4 °F 81% 30.01 in 10.0 mi West 12.7 mph - N/A   Clear
6:55 AM 32.0 °F 23.0 °F 28.4 °F 87% 30.02 in 10.0 mi West 11.5 mph - N/A   Clear
7:15 AM 32.0 °F 22.5 °F 28.4 °F 87% 30.02 in 10.0 mi West 12.7 mph - N/A   Clear
7:35 AM 33.8 °F 24.3 °F 28.4 °F 81% 30.03 in 10.0 mi West 13.8 mph - N/A   Clear
7:55 AM 33.8 °F 25.3 °F 28.4 °F 81% 30.05 in 10.0 mi West 11.5 mph - N/A   Clear
8:35 AM 35.6 °F 26.2 °F 28.4 °F 75% 30.07 in 10.0 mi West 15.0 mph 18.4 mph N/A   Clear
8:55 AM 35.6 °F 27.5 °F 28.4 °F 75% 30.07 in 10.0 mi West 11.5 mph 20.7 mph N/A   Clear
9:15 AM 37.4 °F 28.2 °F 28.4 °F 70% 30.08 in 10.0 mi West 16.1 mph - N/A   Clear
9:35 AM 37.4 °F 29.8 °F 30.2 °F 75% 30.09 in 10.0 mi West 11.5 mph 17.3 mph N/A   Clear
9:55 AM 39.2 °F 30.8 °F 30.2 °F 70% 30.09 in 10.0 mi West 15.0 mph - N/A   Clear
10:15 AM 41.0 °F 33.5 °F 30.2 °F 65% 30.09 in 10.0 mi WNW 13.8 mph 20.7 mph N/A   Clear
10:35 AM 41.0 °F 32.8 °F 28.4 °F 61% 30.10 in 10.0 mi WNW 16.1 mph 23.0 mph N/A   Clear
10:55 AM 42.8 °F 34.8 °F 26.6 °F 53% 30.11 in 10.0 mi WNW 17.3 mph 21.9 mph N/A   Clear
11:15 AM 42.8 °F 35.1 °F 26.6 °F 53% 30.11 in 10.0 mi West 16.1 mph 24.2 mph N/A   Clear
11:55 AM 44.6 °F 38.1 °F 26.6 °F 49% 30.11 in 10.0 mi WNW 13.8 mph 20.7 mph N/A   Scattered Clouds
12:15 PM 44.6 °F 38.1 °F 26.6 °F 49% 30.10 in 10.0 mi WNW 13.8 mph 26.5 mph N/A   Scattered Clouds
12:35 PM 46.4 °F 39.5 °F 26.6 °F 46% 30.10 in 10.0 mi West 17.3 mph 24.2 mph N/A   Scattered Clouds
12:55 PM 44.6 °F 36.9 °F 24.8 °F 46% 30.11 in 10.0 mi West 18.4 mph 26.5 mph N/A   Mostly Cloudy
1:15 PM 46.4 °F 38.7 °F 23.0 °F 40% 30.11 in 10.0 mi West 20.7 mph 27.6 mph N/A   Scattered Clouds
1:35 PM 46.4 °F 39.2 °F 23.0 °F 40% 30.10 in 10.0 mi West 18.4 mph 23.0 mph N/A   Scattered Clouds
1:55 PM 46.4 °F 39.2 °F 24.8 °F 43% 30.10 in 10.0 mi West 18.4 mph 24.2 mph N/A   Mostly Cloudy
2:15 PM 46.4 °F 40.4 °F 24.8 °F 43% 30.10 in 10.0 mi West 13.8 mph 23.0 mph N/A   Scattered Clouds
2:35 PM 46.4 °F 39.2 °F 23.0 °F 40% 30.10 in 10.0 mi West 18.4 mph 25.3 mph N/A   Scattered Clouds
2:55 PM 48.2 °F - 24.8 °F 40% 30.10 in 10.0 mi WSW 20.7 mph 26.5 mph N/A   Scattered Clouds
3:15 PM 48.2 °F - 23.0 °F 37% 30.10 in 10.0 mi West 16.1 mph 21.9 mph N/A   Scattered Clouds
3:35 PM 48.2 °F - 23.0 °F 37% 30.10 in 10.0 mi West 13.8 mph 26.5 mph N/A   Scattered Clouds
3:55 PM 48.2 °F - 23.0 °F 37% 30.10 in 10.0 mi West 15.0 mph 20.7 mph N/A   Clear
4:15 PM 50.0 °F - 23.0 °F 35% 30.10 in 10.0 mi West 15.0 mph 21.9 mph N/A   Clear
4:35 PM 48.2 °F - 23.0 °F 37% 30.10 in 10.0 mi West 18.4 mph - N/A   Clear
4:55 PM 48.2 °F - 23.0 °F 37% 30.10 in 10.0 mi West 15.0 mph 20.7 mph N/A   Clear
5:15 PM 48.2 °F - 23.0 °F 37% 30.09 in 10.0 mi West 11.5 mph - N/A   Clear
5:35 PM 48.2 °F - 23.0 °F 37% 30.10 in 10.0 mi West 10.4 mph 18.4 mph N/A   Clear
5:55 PM 46.4 °F 41.9 °F 24.8 °F 43% 30.10 in 10.0 mi West 9.2 mph - N/A   Clear
6:35 PM 44.6 °F 39.7 °F 24.8 °F 46% 30.11 in 10.0 mi West 9.2 mph - N/A   Clear
6:55 PM 44.6 °F 40.7 °F 24.8 °F 46% 30.11 in 10.0 mi WSW 6.9 mph - N/A   Clear
7:15 PM 44.6 °F 41.4 °F 24.8 °F 46% 30.12 in 10.0 mi WSW 5.8 mph - N/A   Clear
7:35 PM 42.8 °F 39.3 °F 26.6 °F 53% 30.12 in 10.0 mi SW 5.8 mph - N/A   Clear
7:55 PM 41.0 °F 37.1 °F 26.6 °F 57% 30.12 in 10.0 mi WSW 5.8 mph - N/A   Clear
8:15 PM 42.8 °F 39.3 °F 24.8 °F 49% 30.13 in 10.0 mi SW 5.8 mph - N/A   Clear
8:35 PM 39.2 °F 35.9 °F 26.6 °F 61% 30.13 in 10.0 mi SSW 4.6 mph - N/A   Clear
8:55 PM 37.4 °F 31.4 °F 26.6 °F 65% 30.12 in 10.0 mi South 8.1 mph - N/A   Clear
9:15 PM 35.6 °F 29.9 °F 26.6 °F 70% 30.11 in 10.0 mi SSW 6.9 mph - N/A   Clear
9:35 PM 37.4 °F 32.8 °F 26.6 °F 65% 30.12 in 10.0 mi SSW 5.8 mph - N/A   Scattered Clouds
9:55 PM 37.4 °F 32.8 °F 26.6 °F 65% 30.12 in 10.0 mi South 5.8 mph - N/A   Scattered Clouds
10:15 PM 37.4 °F 32.1 °F 26.6 °F 65% 30.12 in 10.0 mi South 6.9 mph - N/A   Scattered Clouds
10:35 PM 35.6 °F 29.9 °F 26.6 °F 70% 30.11 in 10.0 mi South 6.9 mph - N/A   Scattered Clouds
10:55 PM 37.4 °F 31.4 °F 26.6 °F 65% 30.11 in 10.0 mi South 8.1 mph - N/A   Clear
11:15 PM 35.6 °F 29.9 °F 26.6 °F 70% 30.11 in 10.0 mi South 6.9 mph - N/A   Scattered Clouds
11:35 PM 35.6 °F 28.6 °F 26.6 °F 70% 30.10 in 10.0 mi South 9.2 mph - N/A   Mostly Cloudy
11:55 PM 35.6 °F 29.2 °F 26.6 °F 70% 30.10 in 10.0 mi South 8.1 mph - N/A   Overcast